Allentown, PA

4:03 PM EST on December 12, 2019 (GMT -0500)
Allentown

Weather History for KXLL - June, 2019

Change the Weather History Date:

Monday, June 10, 2019

  Actual Average (WUND) Record (WUND)
Temperature  
Mean Temperature 60 °F -  
Max Temperature 62 °F - - (-1)
Min Temperature 59 °F - - (-1)
Degree Days  
Heating Degree Days 4    
Growing Degree Days 10 (Base 50)    
Moisture  
Dew Point 57 °F    
Average Humidity 88    
Maximum Humidity 100    
Minimum Humidity 68    
Precipitation  
Precipitation 0.73 in - - ()
Sea Level Pressure  
Sea Level Pressure 30.03 in    
Wind  
Wind Speed 7 mph ()    
Max Wind Speed 14 mph    
Max Gust Speed 18 mph    
Visibility 7.8 miles    
Events Rain    
Averages and records for this station are not official NWS values.
T = Trace of Precipitation, MM = Missing Value Source: Averaged Metar Reports

Daily Weather History Graph

Daily Weather History Graph

Search for Another Location

Airport or City:

Astronomy

Jun. 10, 2019 Rise Set
Actual Time 5:30 AM EDT 8:32 PM EDT
Civil Twilight 4:57 AM EDT 9:05 PM EDT
Nautical Twilight 4:15 AM EDT 9:47 PM EDT
Astronomical Twilight 3:26 AM EDT 10:36 PM EDT
Moon 1:18 PM EDT (6/10) 1:43 AM EDT (6/10)
Length of Visible Light 16h 07m
Length of Day
15h 01m
First Quarter, 55% of the Moon is Illuminated
Jun 10
First Quarter
Jun 17
Full
Jun 25
Last Quarter
Jul 2
New
Jul 9
First Quarter

Hourly Weather History & Observations

Time (EDT) Temp. Dew Point Humidity Pressure Visibility Wind Dir Wind Speed Gust Speed Precip Events Conditions
12:15 AM - - N/A% 30.23 in 10.0 mi ENE 5.8 mph - N/A   Scattered Clouds
12:35 AM - - N/A% 30.22 in 10.0 mi ENE 5.8 mph - N/A   Clear
12:55 AM - - N/A% 30.22 in 10.0 mi NE 8.1 mph - N/A   Mostly Cloudy
1:15 AM - - N/A% 30.21 in 10.0 mi NE 9.2 mph - N/A   Overcast
1:35 AM - - N/A% 30.20 in 10.0 mi NE 8.1 mph - N/A   Overcast
1:55 AM - - N/A% 30.20 in 10.0 mi NE 6.9 mph - N/A   Overcast
2:15 AM - - N/A% 30.19 in 10.0 mi NE 10.4 mph - N/A   Overcast
2:35 AM - - N/A% 30.19 in 10.0 mi ENE 8.1 mph - N/A   Overcast
2:55 AM - - N/A% 30.18 in 10.0 mi ENE 9.2 mph - N/A   Overcast
3:15 AM - - N/A% 30.16 in 10.0 mi ENE 12.7 mph 17.3 mph N/A   Overcast
3:35 AM - - N/A% 30.16 in 10.0 mi ENE 8.1 mph 17.3 mph N/A   Overcast
3:55 AM - - N/A% 30.16 in 10.0 mi ENE 10.4 mph - N/A   Overcast
4:15 AM - - N/A% 30.14 in 10.0 mi NE 11.5 mph - N/A   Overcast
4:35 AM - - N/A% 30.14 in 10.0 mi ENE 10.4 mph - N/A   Overcast
4:55 AM - - N/A% 30.14 in 10.0 mi ENE 9.2 mph - N/A   Overcast
5:15 AM - - N/A% 30.13 in 10.0 mi ENE 10.4 mph - N/A   Overcast
5:35 AM - - N/A% 30.14 in 10.0 mi ENE 10.4 mph 17.3 mph N/A   Light Drizzle
5:55 AM - - N/A% 30.13 in 10.0 mi ENE 9.2 mph - N/A   Overcast
6:15 AM - - N/A% 30.13 in 7.0 mi NE 6.9 mph - N/A Rain Light Rain
6:35 AM 60.8 °F 50.0 °F 68% 30.13 in 10.0 mi ENE 10.4 mph - N/A Rain Light Rain
6:55 AM 60.8 °F 51.8 °F 72% 30.13 in 7.0 mi ENE 10.4 mph 18.4 mph N/A   Overcast
7:15 AM 60.8 °F 53.6 °F 77% 30.13 in 7.0 mi ENE 10.4 mph 16.1 mph N/A Rain Rain
7:35 AM 59.0 °F 55.4 °F 88% 30.12 in 10.0 mi NE 11.5 mph - N/A Rain Light Rain
7:55 AM 59.0 °F 59.0 °F 100% 30.12 in 7.0 mi NE 8.1 mph - N/A Rain Light Rain
8:15 AM - - N/A% 30.11 in 5.0 mi NE 6.9 mph - N/A   Haze
8:35 AM 59.0 °F 59.0 °F 100% 30.11 in 7.0 mi NE 6.9 mph - N/A Rain Light Rain
8:55 AM 59.0 °F 59.0 °F 100% 30.11 in 10.0 mi NE 8.1 mph - 0.01 in   Drizzle
9:15 AM - - N/A% 30.10 in 7.0 mi NE 5.8 mph - N/A Rain Rain
9:35 AM - - N/A% 30.09 in 5.0 mi ENE 6.9 mph 16.1 mph 0.02 in Rain Rain
9:55 AM - - N/A% 30.08 in 5.0 mi ENE 13.8 mph 17.3 mph 0.02 in Rain Light Rain
10:15 AM 62.6 °F 60.8 °F 94% 30.07 in 3.0 mi East 11.5 mph 16.1 mph 0.01 in Rain Rain
10:35 AM 62.6 °F 60.8 °F 94% 30.07 in 5.0 mi ENE 9.2 mph - 0.02 in Rain Light Rain
10:55 AM - - N/A% 30.06 in 7.0 mi ENE 10.4 mph 16.1 mph 0.04 in Rain Rain
11:15 AM - - N/A% 30.05 in 10.0 mi ENE 12.7 mph - N/A   Overcast
11:35 AM - - N/A% 30.04 in 1.5 mi ENE 11.5 mph 16.1 mph N/A   Overcast
11:55 AM - - N/A% 30.04 in 3.0 mi ENE 6.9 mph - N/A   Overcast
12:15 PM - - N/A% 30.03 in 5.0 mi East 9.2 mph - 0.04 in Rain Light Rain
12:35 PM - - N/A% 30.03 in 7.0 mi East 9.2 mph - 0.07 in Rain Rain
12:55 PM - - N/A% 30.02 in 5.0 mi East 8.1 mph - 0.10 in Rain Rain
1:15 PM - - N/A% 30.02 in 5.0 mi ENE 6.9 mph - 0.02 in Rain Rain
1:35 PM - - N/A% 30.01 in 7.0 mi Calm Calm - 0.06 in Rain Rain
1:55 PM - - N/A% 30.00 in 10.0 mi ENE 4.6 mph - 0.07 in Rain Rain
2:15 PM - - N/A% 29.99 in 10.0 mi Calm Calm - N/A Rain Light Rain
2:35 PM - - N/A% 29.99 in 10.0 mi NNE 3.5 mph - N/A   Light Drizzle
2:55 PM - - N/A% 29.98 in 10.0 mi NNE 3.5 mph - N/A   Overcast
3:15 PM - - N/A% 29.97 in 10.0 mi ENE 4.6 mph - 0.01 in Rain Light Rain
3:35 PM - - N/A% 29.96 in 10.0 mi NE 4.6 mph - 0.01 in   Overcast
3:55 PM - - N/A% 29.95 in 7.0 mi NNE 3.5 mph - 0.01 in Rain Light Rain
4:15 PM - - N/A% 29.94 in 10.0 mi NE 4.6 mph - N/A   Overcast
4:35 PM - - N/A% 29.94 in 10.0 mi East 6.9 mph - N/A   Overcast
4:55 PM - - N/A% 29.93 in 7.0 mi Calm Calm - N/A   Light Drizzle
5:15 PM - - N/A% 29.93 in 7.0 mi ENE 3.5 mph - N/A   Overcast
5:35 PM - - N/A% 29.91 in 4.0 mi ENE 6.9 mph - 0.02 in Rain Rain
5:55 PM - - N/A% 29.91 in 2.5 mi NNE 5.8 mph - 0.10 in Rain Rain
6:15 PM - - N/A% 29.90 in 1.0 mi North 5.8 mph - 0.22 in Rain Heavy Rain
6:35 PM - - N/A% 29.90 in 2.5 mi West 6.9 mph - 0.32 in Rain Rain
6:55 PM - - N/A% 29.90 in 3.0 mi ESE 3.5 mph - 0.36 in Rain Rain
7:15 PM - - N/A% 29.90 in 10.0 mi Calm Calm - N/A   Overcast
7:35 PM - - N/A% 29.89 in 10.0 mi Calm Calm - 0.01 in   Overcast
7:55 PM - - N/A% 29.89 in 10.0 mi Calm Calm - 0.01 in   Overcast
8:15 PM - - N/A% 29.88 in 7.0 mi East 3.5 mph - N/A Rain Light Rain
8:35 PM - - N/A% 29.88 in 10.0 mi Calm Calm - N/A   Overcast
8:55 PM - - N/A% 29.87 in 10.0 mi Calm Calm - N/A   Overcast
9:15 PM - - N/A% 29.87 in 10.0 mi Calm Calm - N/A   Overcast
9:35 PM - - N/A% 29.87 in 10.0 mi South 3.5 mph - 0.01 in   Overcast
9:55 PM - - N/A% 29.87 in 7.0 mi South 3.5 mph - 0.01 in Rain Rain
10:15 PM - - N/A% 29.87 in 10.0 mi Calm Calm - N/A   Overcast
10:35 PM - - N/A% 29.87 in 5.0 mi Calm Calm - N/A   Haze
10:55 PM - - N/A% 29.87 in 5.0 mi Calm Calm - N/A   Haze
11:15 PM - - N/A% 29.87 in 5.0 mi Calm Calm - N/A   Haze
11:35 PM - - N/A% 29.87 in 5.0 mi Calm Calm - N/A   Haze
11:55 PM - - N/A% 29.86 in 7.0 mi Calm Calm - N/A   Overcast